Regional Weather Roundup
Issued by NWS

Home | Current Version | Previous Version | Graphics & Text | Print | Product List | Glossary On
Versions: 1 2 3 4 5 6 7 8 9 10 11 12 13 14 15 16 17 18 19 20 21 22 23 24 25 26 27 28 29 30 31 32 33 34 35 36 37 38 39 40 41 42 43 44 45 46 47 48 49 50
000
ASUS43 KLSX 251907
RWRMO

WEATHER SUMMARY FOR MISSOURI
NATIONAL WEATHER SERVICE SPRINGFIELD MO
200 PM CDT WED APR 25 2018

NOTE: "FAIR" INDICATES FEW OR NO CLOUDS BELOW 12,000 FEET WITH NO
       SIGNIFICANT WEATHER AND/OR OBSTRUCTIONS TO VISIBILITY.
       CURRENT SKY AND/OR WEATHER CONDITIONS ARE NOT AVAILABLE FOR
       CHILLICOTHE AND FARMINGTON.

MOZ001>031-035>038-043-044-053-054-252000-
...NORTHERN AND WESTERN MISSOURI...

CITY           SKY/WX    TMP DP  RH WIND       PRES   REMARKS
KANSAS CTY INT RAIN      47  45  93 N12       30.14F FOG
KANSAS C DTWN  LGT RAIN  50  46  86 N7        30.13F FOG
LEE`S SUMMIT   LGT RAIN  49  48  97 N10       30.13F
ST JOSEPH      LGT RAIN  49  47  93 N13       30.16F
CHILLICOTHE      N/A     50  45  83 N7        30.15S
KIRKSVILLE     CLOUDY    55  44  66 N7        30.11F

$$
MOZ066>068-077>081-088>096-101>105-252000-
...SOUTHWEST MISSOURI...

CITY           SKY/WX    TMP DP  RH WIND       PRES   REMARKS
SPRINGFIELD    LGT RAIN  55  50  83 CALM      30.09F
JOPLIN         LGT RAIN  56  52  86 CALM      30.08F
BRANSON        LGT RAIN  54  54 100 CALM      30.11F FOG

$$
MOZ032>034-039>042-045>050-055>058-069>072-252000-
...CENTRAL MISSOURI...

CITY           SKY/WX    TMP DP  RH WIND       PRES   REMARKS
COLUMBIA       CLOUDY    57  44  62 N10       30.08F
JEFFERSON CITY CLOUDY    61  42  49 NW6       30.07F
ROLLA          CLOUDY    59  43  55 NW10      30.07F
SEDALIA        LGT RAIN  53  51  93 NW9       30.11F
WHITEMAN AFB   LGT RAIN  51  50  94 N8        30.07F FOG
WARRENSBURG    LGT RAIN  50  46  87 NW8       30.12F
OSAGE BEACH    CLOUDY    60  45  57 VRB6      30.09F

$$
MOZ051-052-059>065-252000-
...EAST CENTRAL MISSOURI...

CITY           SKY/WX    TMP DP  RH WIND       PRES   REMARKS
ST LOUIS INTL  CLOUDY    65  53  65 N6        30.02F
SPIRIT OF STL  CLOUDY    66  52  60 MISG      30.02F
ST CHARLES     CLOUDY    64  52  64 N9        30.02F

$$
MOZ072>076-082>087-097>100-106>115-252000-
...SOUTH CENTRAL AND SOUTHEAST MISSOURI...

CITY           SKY/WX    TMP DP  RH WIND       PRES   REMARKS
CAPE GIRARDEAU FAIR      71  50  47 CALM      29.99F
FARMINGTON     CLOUDY    66  47  50 N5        30.02F
POPLAR BLUFF   FAIR      69  52  54 S7        30.00F
WEST PLAINS    CLOUDY    60  46  59 W13       30.07F

$$



USA.gov is the U.S. government's official web portal to all federal, state and local government web resources and services.